Regional Weather Roundup
Issued by NWS

Home | Current Version | Previous Version | Text Only | Print | Product List | Glossary On
Versions: 1 2 3 4 5 6 7 8 9 10 11 12 13 14 15 16 17 18 19 20 21 22 23 24 25 26 27 28
000
ASCA42 TJSJ 260110
RWRPR
PUERTO RICO/U.S. VIRGIN ISLANDS HOURLY WEATHER ROUNDUP
NATIONAL WEATHER SERVICE SAN JUAN PR
900 PM AST WED MAY 25 2016

PRZ001-004-260200-
PUERTO RICO

CITY           SKY/WX    TMP DP  RH WIND       PRES   REMARKS
SAN JUAN LMM   PTCLDY    81  72  74 E6        30.05R
AGUADILLA      PTCLDY    81  73  78 E9        30.06R
$$

PRZ006-007-260200-
U.S. VIRGIN ISLANDS

CITY           SKY/WX    TMP DP  RH WIND       PRES   REMARKS
CHARLOTTE AMA  CLEAR     81  70  69 E8        30.04R
CHRISTIANSTED  PTCLDY    79  72  78 NE7       30.05R
$$

HOURLY WEATHER ROUNDUP FOR THE NEWS MEDIA

CITY           SKY/WX    TMP DP  RH WIND       PRES   REMARKS
ORLANDO        CLEAR     77  60  55 E10       30.18S
NEW YORK       PTCLDY    75  49  39 SW10      30.05R
NEWARK         PTCLDY    82  44  26 SW13      30.04R
CHICAGO        TSTM      68  65  90 E13       29.92R
HARTFORD       PTCLDY    72  52  49 SW7       29.99R
BOSTON         CLOUDY    82  49  31 W14G24    29.96R
DALLAS         CLOUDY    85  74  69 S18G24    29.92R HX  92
PHILADELPHIA   PTCLDY    79  50  36 SW12      30.09R
LOS ANGELES    MOSUNNY   64  52  64 W13       30.07S
WASHINGTON DC  MOCLDY    70  57  63 CALM      30.12R



USA.gov is the U.S. government's official web portal to all federal, state and local government web resources and services.